Weather Service Report


421 
ASUS45 KTFX 020019
RWRMT 
MONTANA HOURLY WEATHER ROUNDUP
NATIONAL WEATHER SERVICE GREAT FALLS MT
619 PM MDT WED APR 1 2015

NOTE: "FAIR" INDICATES FEW OR NO CLOUDS BELOW 12000 FEET WITH NO
SIGNIFICANT WEATHER AND/OR OBSTRUCTIONS TO VISIBILITY.

* THESE STATIONS ARE NOT UNDER NWS QUALITY CONTROL. THEY DO NOT
   REPORT WEATHER SUCH AS PRECIPITATION OR FOG.

MTZ001>007-043-020100-
WEST OF THE DIVIDE
CITY           SKY/WX    TMP DP  RH WIND       PRES   REMARKS
KALISPELL      MOCLDY    48  19  32 SW17G23   29.92S 
MISSOULA       MOCLDY    39  27  62 W13       30.04R WCI  31 
BUTTE          LGT SNOW  32  18  56 NW12G23   29.97R WCI  23 
MULLAN PASS    CLOUDY    25  23  92 NW8       29.98S WCI  16 
* ESSEX        N/A       38  21  50 W1G7       N/A   
* EUREKA APT   MOCLDY    46  21  37 SW9       29.94F 
* HAMILTON APT PTCLDY    43  23  45 SE1       30.04S 
* LIBBY APT    MOCLDY    46  19  34 NW6       30.00R 
* LINCOLN      N/A       40  17  39 S8G24      N/A   WCI  35 
* LOOKOUT PASS N/A       29  27  92 E6G12      N/A   WCI  23 
* POLSON       N/A       44  16  32 W5G11      N/A   
* RONAN APT    PTCLDY    48  21  34 SW21       N/A   
* SEELEY LAKE  N/A       41  16  36 NW11G21    N/A   
* THOMP F APT  CLOUDY    36   2  23 NW8G19     N/A   WCI  30 
$$

MTZ008-052>055-020100-
SOUTHWEST MONTANA
CITY           SKY/WX    TMP DP  RH WIND       PRES   REMARKS
BOZEMAN        MOCLDY    41  18  39 W16       29.94S 
DILLON         MOCLDY    39  18  43 W8G21     29.96S WCI  33 
* W YELLOWSTON MOCLDY    33  19  56 S3G12      N/A   
* THREE FORKS  MOCLDY    45  12  26 W6         N/A   
* TWIN BRIDGES MOCLDY    39  10  30 S5         N/A   WCI  35 
* BOULDER HILL N/A       33  13  44 SW3G19     N/A   
* HOMESTAKE PS N/A       27  17  66 NW16G27    N/A   WCI  15 
* MONIDA PASS  N/A       32   9  38 NW17G23    N/A   WCI  21 
* RAYNOLDS PAS N/A       32  31  96 N18        N/A   WCI  21 
* WHITEHALL    N/A       41  16  36 W9G24      N/A   
* WISE RIVER   N/A       33  13  44 NW14G23    N/A   WCI  23 
$$

MTZ009>010-012-014-046-048-049-054-020100-
EAST SLOPES AND CENTRAL MONTANA
CITY           SKY/WX    TMP DP  RH WIND       PRES   REMARKS
CUT BANK       PTCLDY    45  10  24 W37G49    29.78R 
GREAT FALLS    MOCLDY    48   3  15 W29G37    29.82R 
HELENA         MOCLDY    46  18  33 W26G36    29.92R 
MALMSTROM AFB  PTCLDY    48   3  15 W24G37    29.84R 
* CONRAD       PTCLDY    46  18  33 SW30G41    N/A   
* DEARBORN     N/A       48   6  18 S27G37     N/A   
* EAST GLACIER N/A       32  22  67 NW25G43    N/A   WCI  19 
* MONARCH      N/A       38   5  25 W17G29     N/A   WCI  29 
* PENDROY      N/A       41  15  35 W32G44     N/A   
* ROGERS PASS  N/A       35  13  40 SE13G29    N/A   WCI  26 
* SAINT MARY   N/A       40  15  36 SW11G23    N/A   WCI  33 
* SWEET GRASS  N/A       45   9  23 NW32G43    N/A   
* WHITE SULPH  N/A       40   8  26 W7G25      N/A   WCI  35 
$$

MTZ011-013-016-021-035-040-045-047-050-051-020100-
NORTH CENTRAL MONTANA
CITY           SKY/WX    TMP DP  RH WIND       PRES   REMARKS
HAVRE          MOCLDY    52  14  22 W26G40    29.72F 
LEWISTOWN      MOCLDY    45  10  24 NW14G21   29.81S 
* N BAR RANCH  PTCLDY    41   7  24 NW16G23   29.82R 
* CHINOOK      MOCLDY    48  16  28 W25G40    29.72F 
* FORT BENTON  PTCLDY    52   9  17 W30G36    29.80R 
* MALTA APT    PTCLDY    52  19  27 W29G40     N/A   
* CHESTER      N/A       44  15  31 W26G48     N/A   
* DENTON       N/A       45  11  25 NW19G31    N/A   
* GEYSER       N/A       45   8  22 W27G36     N/A   
* JUDITH GAP   N/A       42   6  22 NW12G20    N/A   
* LOMA         N/A       51   7  17 W35G47     N/A   
$$

MTZ017>020-022>027-061-062-020100-
NORTHEAST MONTANA
CITY           SKY/WX    TMP DP  RH WIND       PRES   REMARKS
GLASGOW        PTCLDY    50  23  35 W20G28    29.70F 
GLENDIVE       CLEAR     50  21  32 W16       29.76R 
JORDAN         PTCLDY    52  12  20 W28G35    29.74F 
SIDNEY         PTCLDY    52  21  30 W26G35    29.72R 
WOLF POINT     PTCLDY    52  25  35 W25G33    29.71F 
* BEAVER HILL  N/A       50  18  28 W30G45     N/A   
* CIRCLE       N/A       44  32  63 W8G14      N/A   
* LINDSAY DVD  N/A       46  23  40 W21G29     N/A   
* NAVAJO       N/A       44  23  43 W31G37     N/A   
* PLENTYWOOD A PTCLDY    48  19  32 W24G41    29.63S 
* POPLAR APT   PTCLDY    48  25  41 W23G32    29.71S 
* SACO         N/A       52  20  28 SW30G37    N/A   
$$

MTZ028>042-056>058-020100-
SOUTHCENTRAL AND SOUTHEAST MONTANA
CITY           SKY/WX    TMP DP  RH WIND       PRES   REMARKS
BAKER          PTCLDY    50  21  32 NW22G32   29.76R 
BILLINGS       PTCLDY    50   9  19 W26G37    29.85R 
LIVINGSTON     CLOUDY    43  14  31 W25G37    29.90S 
MILES CITY     PTCLDY    61  16  17 W21G31    29.78R 
* BIG TIMBER A CLOUDY    39  16  39 SW24G29   29.91R WCI  28 
* FORSYTH APT  PTCLDY    52  16  24 W15G26    29.80R VSB 2 1/2 
* LAUREL APT   PTCLDY    48  10  21 W21G26     N/A   
* ROUNDUP APT  MOCLDY    48   9  20 NW15G23    N/A   
* ALZADA       N/A       52   6  15 W13G20     N/A   
* HYSHAM       N/A       50  14  24 NW24G34    N/A   
* LAME DEER    N/A       47   3  16 W20G31     N/A   
* REED POINT   N/A       45  19  35 W12G26     N/A   
* ROSCOE HILL  N/A       44   5  20 W6G14      N/A   
$$

REGIONAL REPORTS...DAKOTAS
CITY           SKY/WX    TMP DP  RH WIND       PRES   REMARKS
WILLISTON      MOCLDY    52  25  35 W20G28    29.66F 
DICKINSON      PTCLDY    52  19  27 NW26G37   29.69R 
BEACH          PTCLDY    50  18  28 NW30G36   29.75R 
CROSBY         FAIR      50  21  32 W25G37    29.62S 
TIOGA          MOCLDY    48  19  32 W23G29    29.66S 
WATFORD CITY   FAIR      50  23  35 W18G28    29.66R 
BISMARCK       PTCLDY    57  25  29 NW22G31   29.67R 
GRAND FORKS    MOCLDY    55  41  59 W24G32    29.47R 
FARGO          PTCLDY    63  37  38 NW16G24   29.51R 
BUFFALO SD     PTCLDY    54   7  15 NW26G36   29.71R 
RAPID CITY     CLOUDY    54  18  24 NW30G37   29.79R 
$$

REGIONAL REPORTS...WYOMING/IDAHO/WASHINGTON
CITY           SKY/WX    TMP DP  RH WIND       PRES   REMARKS
GILLETTE       MOCLDY    48   9  20 NW24G32   29.85R 
SHERIDAN       MOCLDY    50  12  22 NW15      29.85S 
CODY           PTCLDY    41  12  30 W15G30    29.91R 
YELLOWSTONE LA MOCLDY    28   7  41 W13G21    29.94F WCI  17 
SALMON         PTCLDY    43  19  38 S6        30.01F 
MULLAN PASS    CLOUDY    25  23  92 NW8       29.98S WCI  16 
SAND POINT     LGT RAIN  39  32  76 SW7       30.08R WCI  34 
SPOKANE        MOCLDY    46  28  50 SW16      30.07R 
$$

REGIONAL REPORTS...ALBERTA
CITY           SKY/WX    TMP DP  RH WIND       PRES   REMARKS
CALGARY        CLOUDY    37  23  57 N33G44    29.85R WCI  24 
LETHBRIDGE     MOCLDY    45  12  26 NW22G49   29.78R 
MEDICINE HAT   CLOUDY    39  27  62 NW39G53   29.72R WCI  26 
EDMONTON       CLOUDY    34  28  79 NW21G29   29.87R WCI  22 
WATERTON GATE  N/A       39  18  43 W20G29     N/A   WCI  29 
CARDSTON       N/A       43  19  38 W23G33     N/A   
MILK RIVER     N/A       43  19  38 NW25G39    N/A   
$$

REGIONAL REPORTS...SASKATCHEWAN
CITY           SKY/WX    TMP DP  RH WIND       PRES   REMARKS
SWIFT CURRENT  FAIR      41  23  49 W32G48    29.54R 
REGINA         PTCLDY    46  28  50 W17G29    29.54S 
VAL MARIE      N/A       46  18  33 W32G49     N/A   
ASSINIBOIA     N/A       48  18  30 W24G32     N/A   
CORONACH       N/A       48  19  32 W21G30     N/A   

$$


Return to Home page


Western Regional Climate Center, wrcc@dri.edu